Waarnemingen

Advertentie
Mijn weer
Malmo/Sturup, Zweden (2636): temperatuur & dauwpunt: 20.05.2020 22:00:00 - 26.05.2020 22:00:00 (CEST)Malmo/Sturup, Zweden (2636): windsnelheid: 20.05.2020 22:00:00 - 26.05.2020 22:00:00 (CEST)Malmo/Sturup, Zweden (2636): windrichting: 20.05.2020 22:00:00 - 26.05.2020 22:00:00 (CEST)Malmo/Sturup, Zweden (2636): luchtdruk: 20.05.2020 22:00:00 - 26.05.2020 22:00:00 (CEST)Malmo/Sturup, Zweden (2636): zicht: 20.05.2020 22:00:00 - 26.05.2020 22:00:00 (CEST)
Datum & Tijd tt [°C] td [°C] ff [km/u] ff [kn] dd ppp [hPa] vv [km]
26.05.2020 22:00:00 12,0 7,0 8 4 WZW - 10
26.05.2020 21:00:00 14,0 7,3 9 5 ZW 1034,5 10
26.05.2020 20:00:00 16,2 4,3 11 6 WZW 1034,3 10
26.05.2020 19:00:00 17,0 5,9 13 7 ZW 1034,5 10
26.05.2020 18:00:00 16,9 6,4 13 7 ZZW 1034,7 10
26.05.2020 17:00:00 17,2 7,0 15 8 ZW 1035,0 10
26.05.2020 16:00:00 17,6 8,2 15 8 ZZW 1035,1 10
26.05.2020 15:00:00 17,2 7,3 16 9 ZZW 1035,3 10
26.05.2020 14:00:00 16,3 7,8 16 9 Z 1035,3 10
26.05.2020 13:00:00 17,8 9,2 13 7 ZZO 1035,2 10
26.05.2020 12:00:00 18,6 8,6 7 4 ZZO 1035,2 45
26.05.2020 11:00:00 17,4 7,2 8 4 O 1035,2 10
26.05.2020 10:00:00 16,3 9,7 5 3 - 1035,2 10
26.05.2020 09:00:00 15,0 9,4 5 3 - 1035,2 10
26.05.2020 08:00:00 13,3 9,9 4 2 - 1034,8 10
26.05.2020 07:00:00 10,9 10,4 0 0 N 1034,6 13
26.05.2020 06:00:00 8,1 8,0 4 2 - 1034,2 10
26.05.2020 05:00:00 6,9 6,8 4 2 Z 1033,7 10
26.05.2020 04:00:00 7,0 6,9 2 1 OZO 1033,3 10
26.05.2020 03:00:00 7,6 7,5 8 4 O 1033,1 0,2
26.05.2020 02:00:00 8,5 8,4 4 2 O 1032,8 0,4
26.05.2020 01:00:00 9,2 8,9 4 2 NNW 1032,6 6
26.05.2020 00:00:00 9,1 8,8 0 0 N 1032,2 2,3
25.05.2020 23:00:00 10,6 10,1 5 3 N 1031,9 10
25.05.2020 22:00:00 11,5 10,7 8 4 NW 1031,7 10
25.05.2020 21:00:00 12,4 11,1 9 5 WNW 1031,0 10
25.05.2020 20:00:00 13,8 11,3 9 5 WNW 1030,1 10
25.05.2020 19:00:00 14,4 10,2 16 9 NW 1029,5 10
25.05.2020 18:00:00 15,7 10,0 16 9 WNW 1028,7 10
25.05.2020 17:00:00 16,0 10,7 18 10 WNW 1028,3 10
25.05.2020 16:00:00 16,2 10,3 13 7 WNW 1027,8 10
25.05.2020 15:00:00 16,3 7,0 9 5 NW 1027,3 10
25.05.2020 14:00:00 16,0 7,7 11 6 N 1026,7 10
25.05.2020 13:00:00 15,2 8,9 13 7 N 1026,0 10
25.05.2020 12:00:00 15,1 10,7 11 6 NNW 1025,4 10
25.05.2020 11:00:00 13,0 10,0 11 6 NNW 1024,9 10
25.05.2020 10:00:00 11,8 10,2 13 7 NW 1024,1 8
25.05.2020 09:00:00 10,8 9,7 11 6 WNW 1023,4 10
25.05.2020 08:00:00 10,5 9,7 9 5 WNW 1022,5 8
25.05.2020 07:00:00 9,7 8,9 11 6 WNW 1021,9 10
25.05.2020 06:00:00 9,6 8,8 9 5 W 1021,3 8
25.05.2020 05:00:00 9,4 8,6 11 6 W 1020,7 10
25.05.2020 04:00:00 9,3 8,5 11 6 W 1020,0 6
25.05.2020 03:00:00 9,5 8,3 13 7 W 1019,6 10
25.05.2020 02:00:00 9,6 8,4 15 8 W 1019,5 10
25.05.2020 01:00:00 9,6 8,2 18 10 W 1019,2 10
25.05.2020 00:00:00 10,2 8,6 15 8 W 1019,0 10
24.05.2020 23:00:00 10,2 8,8 16 9 W 1019,1 7
24.05.2020 22:00:00 10,2 8,6 15 8 W 1019,0 10
24.05.2020 21:00:00 10,6 9,0 16 9 W 1018,9 10
24.05.2020 20:00:00 10,3 9,1 15 8 W 1018,8 10
24.05.2020 19:00:00 11,0 8,7 18 10 W 1018,8 10
24.05.2020 18:00:00 12,1 9,1 22 12 W 1018,4 10
24.05.2020 17:00:00 12,3 9,1 16 9 W 1018,1 10
24.05.2020 16:00:00 12,9 9,2 22 12 W 1017,9 10
24.05.2020 15:00:00 12,6 8,7 26 14 W 1017,6 10
24.05.2020 14:00:00 12,6 8,7 29 16 WZW 1017,4 10
24.05.2020 13:00:00 13,7 8,3 21 11 WZW 1017,3 10
24.05.2020 12:00:00 13,8 8,6 29 16 WZW 1017,5 10
24.05.2020 11:00:00 12,2 7,7 35 19 WZW 1017,6 10
24.05.2020 10:00:00 12,3 9,1 26 14 WZW 1017,7 10
24.05.2020 09:00:00 11,2 8,2 24 13 WZW 1017,5 10
24.05.2020 08:00:00 11,0 9,4 22 12 WZW 1017,2 10
24.05.2020 07:00:00 11,5 9,2 22 12 WZW 1017,0 10
24.05.2020 06:00:00 10,7 8,6 21 11 WZW 1017,1 10
24.05.2020 05:00:00 10,7 7,8 18 10 WZW 1017,2 10
24.05.2020 04:00:00 10,7 7,8 21 11 ZW 1017,5 10
24.05.2020 03:00:00 9,8 7,4 15 8 ZW 1017,9 10
24.05.2020 02:00:00 9,3 6,9 13 7 ZW 1018,3 10
24.05.2020 01:00:00 9,1 6,4 15 8 WZW 1018,4 10
24.05.2020 00:00:00 10,2 6,9 15 8 WZW 1018,2 10
23.05.2020 23:00:00 10,9 5,8 15 8 WZW 1018,0 10
23.05.2020 22:00:00 11,7 6,0 15 8 W 1017,9 10
23.05.2020 21:00:00 13,0 6,1 16 9 W 1017,2 10
23.05.2020 20:00:00 14,7 6,3 22 12 W 1016,3 10
23.05.2020 19:00:00 15,4 6,4 22 12 W 1015,9 10
23.05.2020 18:00:00 15,7 6,7 21 11 WZW 1015,7 10
23.05.2020 17:00:00 14,6 9,8 16 9 WZW 1015,9 10
23.05.2020 16:00:00 14,0 10,6 18 10 W 1016,0 10
23.05.2020 15:00:00 14,3 12,5 13 7 WZW 1015,5 9
23.05.2020 14:00:00 14,7 12,6 16 9 ZZW 1015,5 6
23.05.2020 13:00:00 14,4 12,4 18 10 ZW 1015,6 9
23.05.2020 12:00:00 15,0 12,5 13 7 ZW 1015,4 10
23.05.2020 11:00:00 14,8 12,3 11 6 ZZW 1015,4 9
23.05.2020 10:00:00 13,4 11,6 9 5 Z 1015,8 8
23.05.2020 09:00:00 11,6 11,1 9 5 Z 1016,2 6
23.05.2020 08:00:00 10,3 9,8 13 7 Z 1016,1 5
23.05.2020 07:00:00 9,6 9,3 13 7 ZZO 1016,1 4,5
23.05.2020 06:00:00 9,2 8,7 18 10 Z 1016,7 10
23.05.2020 05:00:00 9,0 8,2 29 16 ZZO 1016,6 6
23.05.2020 04:00:00 8,9 8,1 28 15 ZZO 1017,0 6
23.05.2020 03:00:00 9,9 7,5 28 15 ZZO 1017,0 10
23.05.2020 02:00:00 11,2 4,9 29 16 ZZO 1017,3 10
23.05.2020 01:00:00 12,2 3,7 26 14 ZZO 1017,7 10
23.05.2020 00:00:00 11,3 5,6 22 12 ZO 1018,8 10
22.05.2020 23:00:00 11,2 5,7 22 12 ZO 1019,5 10
22.05.2020 22:00:00 12,0 3,7 26 14 ZO 1019,8 10
22.05.2020 21:00:00 13,2 1,5 26 14 ZO 1019,2 10
22.05.2020 20:00:00 13,2 0,6 26 14 ZO 1019,5 10
22.05.2020 19:00:00 13,2 0,2 26 14 ZO 1020,1 10
22.05.2020 18:00:00 13,6 0,2 28 15 ZO 1021,2 10
22.05.2020 17:00:00 14,1 -1,1 28 15 ZO 1022,0 10
22.05.2020 16:00:00 14,5 -0,8 34 18 ZO 1022,4 10
22.05.2020 15:00:00 15,5 0,9 34 18 ZO 1022,7 10
22.05.2020 14:00:00 16,1 0,6 34 18 ZZO 1023,0 10
22.05.2020 13:00:00 16,3 -3,8 31 17 ZZO 1023,2 10
22.05.2020 12:00:00 16,5 -1,6 31 17 ZZO 1023,3 10
22.05.2020 11:00:00 16,0 2,0 28 15 ZO 1023,1 10
22.05.2020 10:00:00 15,2 4,0 26 14 ZZO 1023,1 10
22.05.2020 09:00:00 14,6 4,9 21 11 ZZO 1023,5 10
22.05.2020 08:00:00 13,0 5,7 16 9 ZO 1023,7 10
22.05.2020 07:00:00 10,9 5,8 15 8 ZO 1023,6 10
22.05.2020 06:00:00 10,0 5,0 15 8 ZO 1023,7 10
22.05.2020 05:00:00 10,8 5,3 15 8 ZZO 1023,8 10
22.05.2020 04:00:00 10,4 5,6 15 8 ZZO 1024,2 10
22.05.2020 03:00:00 10,5 5,1 9 5 ZO 1024,5 10
22.05.2020 02:00:00 9,7 6,2 13 7 Z 1024,8 10
22.05.2020 01:00:00 8,7 7,3 7 4 ZZO 1025,0 50
22.05.2020 00:00:00 9,1 7,2 8 4 ZO 1025,0 10
21.05.2020 23:00:00 10,4 7,8 9 5 ZO 1024,5 10
21.05.2020 22:00:00 9,9 6,8 11 6 ZZO 1024,3 10
21.05.2020 21:00:00 10,6 6,2 11 6 ZZO 1024,4 10
21.05.2020 20:00:00 11,9 5,7 13 7 ZZO 1024,3 10
21.05.2020 19:00:00 14,2 6,5 15 8 Z 1024,3 10
21.05.2020 18:00:00 15,6 4,9 11 6 ZZW 1024,3 10
21.05.2020 17:00:00 16,0 5,9 13 7 ZZW 1024,6 10
21.05.2020 16:00:00 16,2 3,3 11 6 Z 1024,8 10
21.05.2020 15:00:00 16,7 3,4 9 5 ZW 1024,9 10
21.05.2020 14:00:00 15,8 2,2 13 7 ZZW 1025,1 10
21.05.2020 13:00:00 15,8 3,6 13 7 ZW 1025,5 10
21.05.2020 12:00:00 14,8 2,3 15 8 ZW 1025,5 10
21.05.2020 11:00:00 14,4 2,3 13 7 ZW 1025,4 10
21.05.2020 10:00:00 13,5 6,1 11 6 Z 1025,5 10
21.05.2020 09:00:00 12,0 7,3 11 6 ZZW 1025,4 10
21.05.2020 08:00:00 10,1 8,9 8 4 Z 1025,3 10
21.05.2020 07:00:00 6,9 6,6 4 2 - 1025,1 10
21.05.2020 06:00:00 4,3 4,0 5 3 O 1024,9 -
21.05.2020 05:00:00 3,7 3,1 5 3 OZO 1024,9 0,1
21.05.2020 04:00:00 2,9 2,3 5 3 OZO 1024,9 10
21.05.2020 03:00:00 4,1 3,5 5 3 ZO 1024,9 10
21.05.2020 02:00:00 3,9 3,3 5 3 O 1024,9 10
21.05.2020 01:00:00 4,4 3,2 4 2 ONO 1024,9 10
21.05.2020 00:00:00 5,9 4,5 4 2 ZZW 1024,5 10
20.05.2020 23:00:00 7,7 4,6 4 2 O 1024,4 10
20.05.2020 22:00:00 9,9 4,5 8 4 ZZW 1024,0 10

tt = temperatuur
td = dauwpunt
ff = windsnelheid
dd = windrichting
ppp = luchtdruk
vv = zicht

Weerstations in de omgeving